FW4291 Weather Reports


time (UTC)temp
F
wind
direction
speed
knots
gust
knots
rain 1hr
in
rain 24hr
in
rain mn
in
humidity
%
barometer
mb
20201025131027 77 337 4.3 5.2 0.00 0.00 0.00 35 1018.7
20201025130047 78 215 4.3 5.2 0.00 0.00 0.00 34 1018.7
20201025125040 79 266 3.5 5.2 0.00 0.00 0.00 33 1018.7
20201025124036 82 180 7.0 9.6 0.00 0.00 0.00 31 1017.6
20201025123033 83 180 0.9 5.2 0.00 0.00 0.00 34 1017.6
20201025122041 84 0.0 5.2 0.00 0.00 0.00 33 1017.6
20201025121056 85 56 2.6 5.2 0.00 0.00 0.00 31 1017.6
20201025120052 90 65 3.5 5.2 0.00 0.00 0.00 29 1017.6
20201025115040 93 56 2.6 5.2 0.00 0.00 0.00 26 1018.7
20201025114030 94 34 0.9 5.2 0.00 0.00 0.00 26 1018.7
20201025113021 94 345 2.6 5.2 0.00 0.00 0.00 27 1018.7
20201025112058 94 22 1.7 5.2 0.00 0.00 0.00 27 1018.7
20201025111056 93 301 2.6 5.2 0.00 0.00 0.00 27 1018.7
20201025110026 93 22 2.6 5.2 0.00 0.00 0.00 28 1018.7
20201025105032 92 79 0.9 5.2 0.00 0.00 0.00 28 1018.7
20201025104018 92 56 2.6 5.2 0.00 0.00 0.00 28 1018.7
20201025103023 92 40 2.6 5.2 0.00 0.00 0.00 29 1018.7
20201025102026 91 225 0.9 5.2 0.00 0.00 0.00 29 1018.7
20201025101056 90 22 0.9 5.2 0.00 0.00 0.00 30 1019.9
20201025100059 90 305 2.6 5.2 0.00 0.00 0.00 30 1019.9
20201025095055 89 41 2.6 5.2 0.00 0.00 0.00 31 1019.9
20201025094056 88 112 1.7 5.2 0.00 0.00 0.00 32 1019.9
20201025093032 88 86 1.7 5.2 0.00 0.00 0.00 33 1019.9
20201025092034 87 202 0.9 5.2 0.00 0.00 0.00 34 1019.9
20201025091025 86 180 0.0 5.2 0.00 0.00 0.00 34 1021.0
20201025090028 85 337 1.7 5.2 0.00 0.00 0.00 36 1021.0
20201025085055 85 67 0.9 5.2 0.00 0.00 0.00 37 1021.0
20201025084025 84 72 1.7 5.2 0.00 0.00 0.00 38 1021.0
20201025083055 83 135 0.0 5.2 0.00 0.00 0.00 38 1021.0
20201025082058 82 67 0.9 5.2 0.00 0.00 0.00 39 1021.0
20201025081055 81 74 0.9 5.2 0.00 0.00 0.00 40 1021.0
20201025080029 80 22 0.9 5.2 0.00 0.00 0.00 40 1021.0
20201025075031 80 0.0 5.2 0.00 0.00 0.00 41 1021.0
20201025074050 79 247 0.9 5.2 0.00 0.00 0.00 41 1021.0
20201025073030 78 67 0.9 5.2 0.00 0.00 0.00 42 1021.0
20201025072036 77 40 1.7 5.2 0.00 0.00 0.00 42 1021.0
20201025071048 76 90 0.9 5.2 0.00 0.00 0.00 43 1022.2
20201025070056 75 325 0.9 5.2 0.00 0.00 0.00 43 1022.2
20201025065038 74 0.0 5.2 0.00 0.00 0.00 44 1022.2
20201025064055 74 0 0.9 5.2 0.00 0.00 0.00 44 1022.2
20201025063040 73 0.0 5.2 0.00 0.00 0.00 45 1022.2
20201025062019 73 0.0 5.2 0.00 0.00 0.00 45 1022.2
20201025061052 72 22 1.7 5.2 0.00 0.00 0.00 45 1022.2
20201025060054 72 0.0 5.2 0.00 0.00 0.00 46 1022.2
20201025055017 71 22 0.9 5.2 0.00 0.00 0.00 46 1022.2
20201025054019 70 45 0.9 5.2 0.00 0.00 0.00 47 1022.2
20201025053036 70 0.0 5.2 0.00 0.00 0.00 48 1022.2
20201025052021 69 45 0.9 5.2 0.00 0.00 0.00 48 1022.2
20201025051055 69 0.0 5.2 0.00 0.00 0.00 48 1022.2
20201025050055 68 0.0 5.2 0.00 0.00 0.00 48 1022.2
20201025045029 68 180 0.9 5.2 0.00 0.00 0.00 49 1022.2
20201025044027 68 0.0 5.2 0.00 0.00 0.00 49 1022.2
20201025043101 68 0.0 5.2 0.00 0.00 0.00 49
20201025042054 67 0.0 5.2 0.00 0.00 0.00 49 1022.2
20201025041019 67 0.0 5.2 0.00 0.00 0.00 49 1022.2
20201025040032 67 0.0 5.2 0.00 0.00 0.00 48
20201025035021 67 0.0 5.2 0.00 0.00 0.00 48 1021.0
20201025034105 67 0.0 5.2 0.00 0.00 0.00 48 1021.0
20201025033033 68 0.0 5.2 0.00 0.00 0.00 48
20201025032054 67 0.0 5.2 0.00 0.00 0.00 48 1021.0
20201025031043 67 0.0 5.2 0.00 0.00 0.00 47 1021.0
20201025030053 66 202 0.9 5.2 0.00 0.00 0.00 47
20201025025028 67 0.0 5.2 0.00 0.00 0.00 47 1021.0
20201025024017 68 0.0 5.2 0.00 0.00 0.00 47 1021.0
20201025023030 67 0.0 5.2 0.00 0.00 0.00 47
20201025022101 68 0.0 5.2 0.00 0.00 0.00 47 1021.0
20201025021036 68 0.0 5.2 0.00 0.00 0.00 47 1019.9
20201025020105 69 0.0 5.2 0.00 0.00 0.00 47
20201025015035 69 0.0 5.2 0.00 0.00 0.00 47 1021.0
20201025014054 68 0.0 5.2 0.00 0.00 0.00 46 1021.0
20201025013054 70 0.0 5.2 0.00 0.00 0.00 46
20201025012040 69 0.0 5.2 0.00 0.00 0.00 46 1021.0
20201025011029 69 180 0.9 5.2 0.00 0.00 0.00 46 1021.0
20201025010030 69 180 0.9 1.7 0.00 0.00 0.00 46
20201025005047 69 180 0.9 5.2 0.00 0.00 0.00 46 1021.0
20201025004024 70 0.0 5.2 0.00 0.00 0.00 45 1021.0
20201025003053 70 0.0 5.2 0.00 0.00 0.00 45
20201025002022 70 0.0 5.2 0.00 0.00 0.00 45 1021.0
20201025001028 70 0.0 5.2 0.00 0.00 0.00 45 1021.0
20201025000056 71 0.0 5.2 0.00 0.00 0.00 45
20201024235053 70 0.0 5.2 0.00 0.00 0.00 46 1021.0
20201024234026 71 0.0 5.2 0.00 0.00 0.00 45 1022.2
20201024233031 71 0.0 5.2 0.00 0.00 0.00 46
20201024232035 71 0.0 5.2 0.00 0.00 0.00 46 1021.0
20201024231016 72 0.0 5.2 0.00 0.00 0.00 45 1021.0
20201024230041 71 0.0 5.2 0.00 0.00 0.00 46
20201024225052 72 0.0 5.2 0.00 0.00 0.00 45 1021.0
20201024224026 72 0.0 5.2 0.00 0.00 0.00 45 1021.0
20201024223053 72 0.0 5.2 0.00 0.00 0.00 45
20201024222053 72 90 1.7 5.2 0.00 0.00 0.00 45 1021.0
20201024221052 72 67 0.9 5.2 0.00 0.00 0.00 45 1022.2
20201024220029 72 45 0.9 5.2 0.00 0.00 0.00 46
20201024215042 72 0.0 5.2 0.00 0.00 0.00 46 1022.2
20201024214022 72 0.0 5.2 0.00 0.00 0.00 46 1022.2
20201024213036 72 56 0.9 5.2 0.00 0.00 0.00 46
20201024212025 73 67 0.0 5.2 0.00 0.00 0.00 46 1022.2
20201024211052 73 0.0 5.2 0.00 0.00 0.00 46 1022.2
20201024210043 73 45 0.0 5.2 0.00 0.00 0.00 47
20201024205051 73 0.0 5.2 0.00 0.00 0.00 47 1021.0
20201024204026 73 0.0 5.2 0.00 0.00 0.00 47 1022.2
20201024203032 73 0.0 5.2 0.00 0.00 0.00 47
20201024202054 73 0.0 5.2 0.00 0.00 0.00 47 1021.0
20201024201041 73 0.0 5.2 0.00 0.00 0.00 48 1021.0
20201024200053 73 0.0 5.2 0.00 0.00 0.00 48 1021.0
20201024195030 73 0.0 5.2 0.00 0.00 0.00 48 1021.0
20201024194051 73 189 0.9 5.2 0.00 0.00 0.00 47 1021.0
20201024193040 72 193 0.9 5.2 0.00 0.00 0.00 46 1019.9
20201024192045 73 180 0.9 5.2 0.00 0.00 0.00 46 1019.9
20201024191054 74 22 5.2 7.8 0.00 0.00 0.00 45 1022.2
20201024190044 74 45 0.9 5.2 0.00 0.00 0.00 44 1022.2
20201024185034 73 0.0 5.2 0.00 0.00 0.00 43 1022.2
20201024184032 74 238 7.0 8.7 0.00 0.00 0.00 42 1022.2
20201024183021 74 157 3.5 6.1 0.00 0.00 0.00 41 1021.0
20201024182040 77 178 1.7 5.2 0.00 0.00 0.00 40 1021.0
20201024181057 78 30 3.5 5.2 0.00 0.00 0.00 38 1019.9
20201024180104 78 53 2.6 5.2 0.00 0.00 0.00 38 1019.9
20201024175039 78 81 1.7 5.2 0.00 0.00 0.00 38 1019.9
20201024174033 78 0.0 5.2 0.00 0.00 0.00 38 1019.9
20201024173035 78 0 0.9 5.2 0.00 0.00 0.00 38 1019.9
20201024172051 78 0.0 5.2 0.00 0.00 0.00 38 1019.9
20201024171051 78 45 0.9 5.2 0.00 0.00 0.00 38 1018.7
20201024170055 78 45 1.7 5.2 0.00 0.00 0.00 38 1019.9
20201024165023 79 0.0 5.2 0.00 0.00 0.00 39 1019.9
20201024164051 79 57 1.7 5.2 0.00 0.00 0.00 39 1018.7
20201024163054 79 112 0.9 5.2 0.00 0.00 0.00 41 1018.7
20201024162046 79 0.0 5.2 0.00 0.00 0.00 41 1018.7
20201024161031 79 0.0 5.2 0.00 0.00 0.00 40 1018.7
20201024160023 80 0.0 5.2 0.00 0.00 0.00 40 1018.7
20201024155030 80 135 0.9 5.2 0.00 0.00 0.00 39 1018.7
20201024154031 81 0.0 5.2 0.00 0.00 0.00 38 1018.7
20201024153042 81 0.0 5.2 0.00 0.00 0.00 37 1018.7
20201024152028 81 0.0 5.2 0.00 0.00 0.00 36 1018.7
20201024151040 81 67 0.9 5.2 0.00 0.00 0.00 34 1017.6
20201024150021 81 274 0.9 5.2 0.00 0.00 0.00 33 1017.6
20201024145056 83 22 2.6 5.2 0.00 0.00 0.00 31 1017.6
20201024144047 87 22 5.2 5.2 0.00 0.00 0.00 29 1017.6
20201024143043 88 11 5.2 7.0 0.00 0.00 0.00 28 1017.6
20201024142054 89 353 3.5 7.0 0.00 0.00 0.00 28 1017.6
20201024141017 89 33 4.3 5.2 0.00 0.00 0.00 28 1017.6
20201024140051 90 22 1.7 5.2 0.00 0.00 0.00 28 1017.6
20201024135022 91 11 2.6 5.2 0.00 0.00 0.00 28 1017.6
20201024134032 90 349 3.5 5.2 0.00 0.00 0.00 28 1017.6
20201024133052 91 5 2.6 5.2 0.00 0.00 0.00 28 1017.6
20201024132020 91 50 3.5 5.2 0.00 0.00 0.00 28 1017.6